Regional Weather Roundup
Issued by NWS San Diego, CA

Home | Current Version | Previous Version | Text Only | Print | Product List | Glossary On
Versions: 1 2 3 4 5 6 7 8 9 10 11 12 13 14 15 16 17 18 19 20 21 22 23 24 25 26 27 28 29 30 31 32 33 34 35 36 37 38 39 40 41 42 43 44 45 46 47 48 49 50
000
ASUS46 KSGX 231010
RWRSGX

SAN DIEGO HOURLY WEATHER ROUNDUP
NATIONAL WEATHER SERVICE SAN DIEGO CA
300 AM PDT WED JUL 23 2014

NOTE: "FAIR" INDICATES FEW OR NO CLOUDS BELOW 12,000 FEET WITH NO
SIGNIFICANT WEATHER AND/OR OBSTRUCTIONS TO VISIBILITY.

CAZ042-043-060-061-PZZ750-775-231100-

GREATER SAN DIEGO AREA

CITY           SKY/WX    TMP DP  RH WIND       PRES   REMARKS
LINDBERGH FLD  CLEAR     69  63  81 N3        30.01F
POINT LOMA       N/A     65  62  91 NW9         N/A
NATIONAL CITY    N/A     69  64  84 CALM      30.01F
CHULA VISTA      N/A     67  64  89 CALM      29.94F
IMPERIAL BEACH CLEAR     63  61  93 CALM      30.00F
BROWN FIELD    CLEAR     66  61  84 CALM      30.01S
MIRAMAR MCAS   CLEAR     64  61  90 N3        30.00F
MONTGOMERY FLD CLEAR     67  63  87 N3        30.01F

$$

NORTH SAN DIEGO COUNTY

CITY           SKY/WX    TMP DP  RH WIND       PRES   REMARKS
CAMP PENDLETON CLEAR     60  54  80 NE3       30.00F
OCEANSIDE AP   CLEAR     58  56  93 CALM      29.99F
VISTA            N/A     62  58  87 CALM      29.98S
CARLSBAD       CLEAR     66  63  90 S3        29.99F
DEL MAR          N/A     64  62  93 CALM      30.02F
FALLBROOK        N/A     64  64 100 CALM      30.01S
ESCONDIDO        N/A     66  59  78 CALM      30.02F
SAN MARCOS       N/A     66  60  83 CALM      29.98F
R. PENASQUITOS   N/A     64  61  90 CALM      30.00F

$$

EAST SAN DIEGO COUNTY

CITY           SKY/WX    TMP DP  RH WIND       PRES   REMARKS
RAMONA         CLEAR     59  50  72 CALM      30.03F
GILLESPIE FLD  FAIR      64  57  77 CALM      30.02S
LA MESA          N/A     67  64  90 NW3       29.94F
JAMUL            N/A     62  57  82 CALM      29.98F
DESCANSO N       N/A     60  44  54 E2        29.88F
MT. LAGUNA OBS   N/A     71   1   6 CALM      29.83F
CAMPO            N/A     57  49  74 NE6       30.05F

$$

ORANGE COUNTY AND THE LOS ANGELES BASIN

CITY           SKY/WX    TMP DP  RH WIND       PRES   REMARKS
JOHN WAYNE AP  CLEAR     70  60  70 SE3       29.99F
LAGUNA BEACH     N/A     61  56  82 CALM      29.96S
LAKE FOREST FR   N/A     64  52  65 CALM      29.89S
SANTA ANA        N/A     66  61  84 CALM      29.95S
HUNTINGTON BCH   N/A     62  60  93 CALM      30.01F
LOS ALAMITOS   FAIR      64  60  86 CALM      29.99F
FULLERTON      CLEAR     69  59  70 E3        29.98F
LONG BEACH     CLEAR     67  60  78 NW3       29.99F
L.A. AP        CLEAR     67  61  81 SE5       29.99F
L.A. DOWNTOWN  CLEAR     70  59  68 CALM      29.99S

$$

THE INLAND EMPIRE

CITY           SKY/WX    TMP DP  RH WIND       PRES   REMARKS
CORONA         CLEAR     56  48  74 MISG      30.01S
CHINO          CLEAR     62  55  77 CALM      30.02S
ONTARIO        PTCLDY    69  53  56 CALM      30.01S
RIVERSIDE AP   CLEAR     67  50  54 SE3       30.01F
RIV CYN CREST    N/A     67  56  66 CALM      29.98S
MORENO VALLEY    N/A     68  54  61 CALM      28.12S
MARCH ARB      CLEAR     62  43  50 CALM      30.03F
HORSETHIEF CYN   N/A     68  38  33 S6        30.01S
PERRIS           N/A     68  52  56 CALM        N/A
MENIFEE          N/A     67  52  58 CALM      30.07S
HEMET EAST       N/A     71  48  43 CALM      29.97S
FRENCH VALLEY  FAIR      66  54  63 CALM      30.03F
TEMECULA         N/A     67  59  74 CALM      30.00S

$$

SAN BERNARDINO AND RIVERSIDE COUNTY MOUNTAINS

CITY           SKY/WX    TMP DP  RH WIND       PRES   REMARKS
BIG BEAR AP    CLEAR     48  28  46 SW3       30.36F
BIG BEAR SHEA    N/A     47  21  34 CALM      30.02S
ANGELUS OAKS     N/A     62  26  25 CALM      29.88F
PINE COVE        N/A     70  15  12 CALM      29.95F

$$

SOUTHERN DESERT INCLUDING THE COACHELLA VALLEY

CITY           SKY/WX    TMP DP  RH WIND       PRES   REMARKS
PALM SPRINGS   CLEAR     83  51  33 S6        29.87F
THOUSAND PALMS   N/A     90  44  20 W17       29.81F
PALM DESERT      N/A     82  59  45 CALM      29.83S
THERMAL        CLEAR     90  47  22 NW13      29.80S
BLYTHE         CLEAR     87  37  17 NW5       29.82S
IMPERIAL AP    CLEAR     86  41  20 NW5       29.80F
EL CENTRO NAS  CLEAR     84  39  20 NW9       29.80F
YUMA AZ        CLEAR     89  46  22 CALM      29.81S

$$

UPPER DESERT

CITY           SKY/WX    TMP DP  RH WIND       PRES   REMARKS
VICTORVILLE AP CLEAR     72  36  26 S6        30.10S
HESPERIA         N/A     65  43  44 CALM      30.07S
GRAY BUTTE AP  NOT AVBL
PALMDALE       CLEAR     72  44  36 SW9       30.07F
LANCASTER      CLEAR     72  46  39 SW12      30.06S
EDWARDS AFB    CLEAR     71  44  38 SW10      30.04S
DAGGETT        CLEAR     78  39  24 W12       30.01F
29 PALMS N     CLEAR     81  32  17 NW7       30.06S
NEEDLES        CLEAR     90  31  12 CALM      29.86F

$$

REGIONAL REPORTS

CITY           SKY/WX    TMP DP  RH WIND       PRES   REMARKS
SANTA BARBARA  CLEAR     62  56  80 CALM      29.97F
SANDBERG       CLEAR     68  37  32 N20       30.21S
MT. WILSON       N/A     68  18  14 MISG        N/A
LAS VEGAS NV   CLEAR     89  29  11 SW6       29.92S
PHOENIX AZ     CLOUDY    95  52  23 SE6       29.87R
TIJUANA        CLEAR     66  59  77 CALM      30.03S
ENSENADA NW      N/A     67  32  27 N2        29.95F

$$

OFFSHORE ISLANDS

CITY           SKY/WX    TMP DP  RH WIND       PRES   REMARKS
CATALINA ARPT  CLEAR     72  41  32 W12       30.04F
SAN NICOLAS IS CLEAR    N/A N/A N/A W28G37    30.01F

$$

MARINE AND OFFSHORE BUOY REPORTS

STATION/POSITION SKY/WX   TEMP    WIND        PRES    SWELL
                          AIR SEA DIR/SP/G            HT/PER/DIR
                          (F)     (DEG/KT/KT) (MB)    (FT/S/D)
TANNER BANKS               66 65  320/ 16/ 21 1017.3S
S CLEMENTE BASIN           68 70  310/ 16/ 19 1016.0F   2/280/11
SAN NICOLAS IS.               67                N/A     2/290/11
SO. S. ROSA ISLA           67 68  320/ 23/ 27 1016.2F   2/11
W. S. BARBARA CH           64 64  320/ 21/ 23 1016.4F   2/310/10
S. MONICA BASIN            68 70  280/  8/ 10 1015.4S   3/280/ 6
S PEDRO CHANNEL               69                N/A
DANA POINT                    67                N/A     2/200/13
CMP PENDLETON NS              65                N/A     2/210/13
OCEANSIDE OFFSHR              68                N/A     2/210/13
TORREY PINES OTR              70                N/A     2/210/13
LA JOLLA 1                 68 69  360/  2/  2 1015.9F
MISSION BAY BUOY              69                N/A     2/200/13
SAN DIEGO BAY                 73              1016.3F
POINT LOMA SOUTH              70                N/A     2/230/12

$$




USA.gov is the U.S. government's official web portal to all federal, state and local government web resources and services.